Location: Chandrammap?lem
(16.9200°N, 81.0051°E)
Time: 13:49:52
(UTC+00:00)

Resurs 1-3 - Pass Details

Date: 29 May 2024
Orbit: 622 x 623 km, 97.7° (Epoch: 16 June)

Event Time Altitude Azimuth Distance (km) Brightness Sun altitude
Exits shadow 13:45:24 - 147° (SSE) 2,108 5.8 -9.6°
Reaches altitude 10° 13:45:44 10° 145° (SE) 1,985 5.6 -9.6°
Maximum altitude 13:49:45 39° 76° (ENE) 936 4.1 -10.5°
Drops below altitude 10° 13:53:46 10° 8° (N) 1,987 6.4 -11.4°
Sets 13:56:04 0° 0° (N) 2,894 7.4 -11.8°
